Location: Shenandoah County Park
(38.9356°N, 78.4524°W)
Time: 00:36:19
(UTC-04:00)

FO-29 - Visible Passes

Search period start: 29 March 2023 00:00
Search period end: 08 April 2023 00:00
Orbit: 801 x 1320 km, 98.5° (Epoch: 28 March)

Date Brightness Start Highest point End Pass type
(mag) Time Alt. Az. Time Alt. Az. Time Alt. Az.
29 Mar 12.4 04:38:46 10° NE 04:42:58 16° E 04:46:56 10° ESE visible
29 Mar 10.0 06:21:21 10° NNE 06:29:00 87° WNW 06:35:50 10° SSW visible
30 Mar 11.3 05:26:49 10° NNE 05:33:43 39° E 05:39:57 10° SSE visible
31 Mar 12.4 04:34:13 10° NE 04:37:49 14° E 04:41:14 10° ESE visible
31 Mar 10.0 06:16:23 10° NNE 06:23:58 88° ESE 06:30:41 10° SSW visible
01 Apr 11.4 05:21:56 10° NNE 05:28:37 36° E 05:34:38 10° SSE visible
02 Apr 12.5 04:29:48 10° ENE 04:32:40 13° E 04:35:24 10° ESE visible
02 Apr 10.0 06:11:26 10° NNE 06:18:55 83° ESE 06:25:30 10° SSW visible
03 Apr 11.5 05:17:05 10° NNE 05:23:30 33° E 05:29:17 10° SSE visible
04 Apr 12.6 04:25:40 10° ENE 04:27:29 11° E 04:29:15 10° E visible
04 Apr 10.0 06:06:29 10° NNE 06:13:51 78° ESE 06:20:18 10° S visible
05 Apr 11.6 05:12:14 10° NNE 05:18:22 30° E 05:23:55 10° SSE visible
06 Apr 10.1 06:01:32 10° NNE 06:08:46 72° ESE 06:15:05 10° S visible
07 Apr 11.7 05:07:24 10° NE 05:13:14 27° E 05:18:29 10° SSE visible
